DW0416 Weather Reports


time (UTC)temp
C
wind
direction
speed
KPH
gust
KPH
rain 1hr
cm
rain 24hr
cm
rain mn
cm
humidity
%
barometer
mb
20260906230039 25 79 9.7 25.7 0.00 0.00 0.00 21 1017.7
20260906224534 25 173 11.3 20.9 0.00 0.00 0.00 21 1017.4
20260906223016 25 149 11.3 27.4 0.00 0.00 0.00 22 1017.3
20260906221518 25 166 8.0 22.5 0.00 0.00 0.00 21 1017.5
20260906220024 26 145 9.7 24.1 0.00 0.00 0.00 20 1017.1
20260906214531 25 217 11.3 17.7 0.00 0.00 0.00 21 1017.4
20260906213035 26 200 4.8 20.9 0.00 0.00 0.00 19 1017.4
20260906211517 26 152 9.7 29.0 0.00 0.00 0.00 18 1017.8
20260906210032 26 224 8.0 24.1 0.00 0.00 0.00 19 1017.9
20260906204528 26 204 9.7 22.5 0.00 0.00 0.00 18 1017.9
20260906203031 26 215 9.7 20.9 0.00 0.00 0.00 19 1017.8
20260906201533 26 146 11.3 22.5 0.00 0.00 0.00 18 1018.0
20260906200019 26 145 8.0 17.7 0.00 0.00 0.00 19 1018.1
20260906194537 26 217 6.4 22.5 0.00 0.00 0.00 18 1018.5
20260906193036 25 167 12.9 24.1 0.00 0.00 0.00 18 1018.8
20260906191533 25 177 9.7 20.9 0.00 0.00 0.00 20 1019.1
20260906190033 25 155 11.3 19.3 0.00 0.00 0.00 19 1019.3
20260906184523 25 200 9.7 20.9 0.00 0.00 0.00 21 1019.7
20260906183028 24 194 6.4 16.1 0.00 0.00 0.00 25 1019.8
20260906181538 22 175 4.8 6.4 0.00 0.00 0.00 28 1020.1
20260906180043 20 251 3.2 8.0 0.00 0.00 0.00 37 1020.4
20260906174537 19 274 3.2 8.0 0.00 0.00 0.00 42 1020.9
20260906173021 18 280 1.6 8.0 0.00 0.00 0.00 42 1021.1
20260906171532 17 202 1.6 4.8 0.00 0.00 0.00 44 1021.3
20260906170032 16 253 1.6 4.8 0.00 0.00 0.00 45 1021.5
20260906164532 15 124 1.6 4.8 0.00 0.00 0.00 46 1021.7
20260906163041 14 303 1.6 6.4 0.00 0.00 0.00 49 1021.9
20260906161532 13 69 1.6 3.2 0.00 0.00 0.00 50 1022.1
20260906160035 12 273 0.0 3.2 0.00 0.00 0.00 54 1022.3
20260906154510 12 285 0.0 3.2 0.00 0.00 0.00 55 1022.4
20260906153033 11 112 0.0 3.2 0.00 0.00 0.00 56 1022.7
20260906151513 10 230 0.0 0.0 0.00 0.00 0.00 61 1022.9
20260906150016 7 85 0.0 0.0 0.00 0.00 0.00 71 1022.9
20260906144513 5 238 0.0 0.0 0.00 0.00 0.00 76 1023.0
20260906143013 5 239 0.0 0.0 0.00 0.00 0.00 78 1023.0
20260906141522 5 239 0.0 0.0 0.00 0.00 0.00 80 1023.0
20260906140017 5 171 0.0 1.6 0.00 0.00 0.00 80 1023.0
20260906134517 5 96 0.0 3.2 0.00 0.00 0.00 79 1022.9
20260906133010 4 115 0.0 1.6 0.00 0.00 0.00 80 1022.9
20260906131530 5 134 0.0 0.0 0.00 0.00 0.00 77 1022.7
20260906130037 5 146 0.0 1.6 0.00 0.00 0.00 79 1022.7
20260906124516 5 253 0.0 0.0 0.00 0.00 0.00 77 1022.7
20260906123029 6 243 0.0 0.0 0.00 0.00 0.00 75 1022.5
20260906121525 6 63 0.0 0.0 0.00 0.00 0.00 69 1022.3
20260906120019 6 63 0.0 0.0 0.00 0.00 0.00 67 1022.3
20260906114521 6 63 0.0 0.0 0.00 0.00 0.00 71 1022.3
20260906113023 7 83 1.6 3.2 0.00 0.00 0.00 63 1022.1
20260906111523 7 31 0.0 4.8 0.00 0.00 0.00 62 1022.1
20260906110014 7 56 0.0 0.0 0.00 0.00 0.00 69 1022.1
20260906104528 7 321 0.0 1.6 0.00 0.00 0.00 68 1022.0
20260906103029 7 32 3.2 4.8 0.00 0.00 0.00 69 1021.9
20260906101528 7 45 0.0 1.6 0.00 0.00 0.00 68 1021.7
20260906100023 8 255 1.6 4.8 0.00 0.00 0.00 61 1021.7
20260906094516 8 114 0.0 1.6 0.00 0.00 0.00 58 1021.7
20260906093037 9 134 0.0 1.6 0.00 0.00 0.00 61 1021.6
20260906091525 9 126 0.0 1.6 0.00 0.00 0.00 57 1021.5
20260906090028 9 131 0.0 0.0 0.00 0.00 0.00 61 1021.6
20260906084528 10 131 0.0 1.6 0.00 0.00 0.00 59 1021.6
20260906083022 10 72 0.0 1.6 0.00 0.00 0.00 57 1021.7
20260906081534 10 37 0.0 1.6 0.00 0.00 0.00 59 1021.7
20260906080030 10 10 0.0 4.8 0.00 0.00 0.00 59 1021.6
20260906074534 11 155 0.0 1.6 0.00 0.00 0.00 55 1021.6
20260906073029 10 123 0.0 1.6 0.00 0.00 0.00 52 1021.7
20260906071522 11 68 0.0 1.6 0.00 0.00 0.00 53 1021.6
20260906070029 10 68 0.0 3.2 0.00 0.00 0.00 53 1021.5
20260906064535 12 53 0.0 1.6 0.00 0.00 0.00 44 1021.4
20260906063033 12 53 0.0 1.6 0.00 0.00 0.00 45 1021.4
20260906061537 12 20 3.2 4.8 0.00 0.00 0.00 46 1021.4
20260906060036 12 27 0.0 0.0 0.00 0.00 0.00 43 1021.4
20260906054527 12 9 0.0 0.0 0.00 0.00 0.00 43 1021.4
20260906053033 12 19 0.0 1.6 0.00 0.00 0.00 44 1021.5
20260906051528 12 17 0.0 0.0 0.00 0.00 0.00 44 1021.5
20260906050023 13 17 0.0 4.8 0.00 0.00 0.00 43 1021.5
20260906044527 13 15 3.2 4.8 0.00 0.00 0.00 42 1021.6
20260906043004 15 51 0.0 3.2 0.00 0.00 0.00 34 1021.5
20260906041527 14 15 0.0 6.4 0.00 0.00 0.00 39 1021.5
20260906040016 17 165 0.0 3.2 0.00 0.00 0.00 33 1021.3
20260906034527 17 162 0.0 1.6 0.00 0.00 0.00 29 1021.3
20260906033033 20 77 1.6 8.0 0.00 0.00 0.00 23 1021.1
20260906031513 20 34 6.4 11.3 0.00 0.00 0.00 23 1021.1
20260906030012 20 70 6.4 11.3 0.00 0.00 0.00 23 1020.9
20260906024532 20 89 4.8 8.0 0.00 0.00 0.00 24 1020.8
20260906023027 20 53 0.0 4.8 0.00 0.00 0.00 23 1020.2
20260906021530 21 48 3.2 8.0 0.00 0.00 0.00 21 1019.9
20260906020018 22 69 0.0 6.4 0.00 0.00 0.00 21 1019.7
20260906014522 23 58 0.0 3.2 0.00 0.00 0.00 21 1019.6
20260906013018 25 28 1.6 6.4 0.00 0.00 0.00 19 1019.7
20260906011532 26 42 1.6 3.2 0.00 0.00 0.00 18 1019.7
20260906010032 27 212 3.2 4.8 0.00 0.00 0.00 19 1019.6
20260906004510 27 193 3.2 8.0 0.00 0.00 0.00 18 1019.5
20260906003032 27 210 3.2 11.3 0.00 0.00 0.00 18 1019.4
20260906001525 27 165 1.6 16.1 0.00 0.00 0.00 18 1019.4
20260906000035 26 162 9.7 16.1 0.00 0.00 0.00 17 1019.5
20260905234532 27 163 4.8 12.9 0.00 0.00 0.00 17 1019.4
20260905233012 27 173 6.4 12.9 0.00 0.00 0.00 17 1019.5
20260905231518 27 155 9.7 19.3 0.00 0.00 0.00 15 1019.4